Weather History for Pasco, WA

Change the Weather History Date:

Wednesday, November 21, 2012

  Actual Average Record
Temperature  
Mean Temperature 47 °F 39 °F  
Max Temperature 54 °F 47 °F 58 °F (2001)
Min Temperature 40 °F 31 °F 10 °F (2013)
Degree Days  
Heating Degree Days 18 26  
Month to date heating degree days 403 464  
Since 1 July heating degree days 847 982  
Cooling Degree Days 0 0  
Month to date cooling degree days 0 0  
Year to date cooling degree days 788 710  
Moisture  
Dew Point 36 °F    
Average Humidity 73    
Maximum Humidity 100    
Minimum Humidity 46    
Precipitation  
Precipitation 0.04 in - 0.22 in (1983)
Month to date precipitation 0.89  
Year to date precipitation 8.35  
Snow  
Snow 0.00 in - - ()
Snow Depth 0.00 in    
Sea Level Pressure  
Sea Level Pressure 29.93 in    
Wind  
Wind Speed 11 mph (SW)    
Max Wind Speed 33 mph    
Max Gust Speed 40 mph    
Visibility 10 miles    
Events      
T = Trace of Precipitation, MM = Missing Value Source: NWS Daily Summary

Daily Weather History Graph

Daily Weather History Graph

Search for Another Location

Airport:

Trip Planner

Search our weather history database for the weather conditions in past years. The results will help you decide how hot, cold, wet, or windy it might be!

Date:

Astronomy

Nov. 21, 2012 Rise Set
Actual Time 7:06 AM PST 4:17 PM PST
Civil Twilight 6:33 AM PST 4:51 PM PST
Nautical Twilight 5:56 AM PST 5:27 PM PST
Astronomical Twilight 5:20 AM PST 6:03 PM PST
Moon 12:55 PM PST (11/21) 12:10 AM PST (11/21)
Length of Visible Light 10h 17m
Length of Day
9h 10m
Waxing Gibbous, 63% of the Moon is Illuminated
Nov 21
Waxing Gibbous
Nov 28
Full
Dec 6
Last Quarter
Dec 13
New
Dec 19
First Quarter

Hourly Weather History & Observations

Time (PST) Temp. Windchill Dew Point Humidity Pressure Visibility Wind Dir Wind Speed Gust Speed Precip Events Conditions
12:53 AM 44.1 °F - 42.1 °F 93% 29.68 in 10.0 mi Calm Calm - 0.00 in   Clear
1:53 AM 42.1 °F 39.2 °F 41.0 °F 96% 29.65 in 10.0 mi SE 4.6 mph - N/A   Mostly Cloudy
2:53 AM 39.9 °F 35.8 °F 39.0 °F 97% 29.64 in 9.0 mi East 5.8 mph - N/A   Mostly Cloudy
3:53 AM 43.0 °F - 42.1 °F 97% 29.63 in 10.0 mi Calm Calm - N/A   Mostly Cloudy
4:53 AM 44.1 °F 41.5 °F 41.0 °F 89% 29.67 in 10.0 mi SSW 4.6 mph - 0.04 in   Overcast
5:53 AM 44.1 °F 38.6 °F 41.0 °F 89% 29.72 in 10.0 mi SW 10.4 mph - N/A   Clear
6:53 AM 46.0 °F 41.9 °F 37.9 °F 73% 29.75 in 10.0 mi WSW 8.1 mph - N/A   Clear
7:53 AM 45.0 °F 38.2 °F 39.0 °F 80% 29.81 in 10.0 mi SW 15.0 mph 18.4 mph N/A   Clear
8:53 AM 48.0 °F - 37.9 °F 68% 29.84 in 10.0 mi WSW 19.6 mph 28.8 mph N/A   Clear
9:53 AM 50.0 °F - 37.0 °F 61% 29.87 in 10.0 mi SW 23.0 mph 35.7 mph N/A   Clear
10:53 AM 51.1 °F - 35.1 °F 54% 29.91 in 10.0 mi SW 28.8 mph 38.0 mph N/A   Clear
11:53 AM 53.1 °F - 35.1 °F 50% 29.92 in 10.0 mi SW 23.0 mph 33.4 mph N/A   Partly Cloudy
12:53 PM 54.0 °F - 33.1 °F 45% 29.94 in 10.0 mi SW 26.5 mph 34.5 mph N/A   Clear
1:53 PM 54.0 °F - 33.1 °F 45% 29.97 in 10.0 mi SW 17.3 mph 25.3 mph N/A   Partly Cloudy
2:53 PM 54.0 °F - 34.0 °F 47% 29.99 in 10.0 mi WSW 19.6 mph 27.6 mph N/A   Mostly Cloudy
3:53 PM 51.1 °F - 35.1 °F 54% 30.02 in 10.0 mi SW 6.9 mph - N/A   Overcast
4:53 PM 46.9 °F - 34.0 °F 61% 30.06 in 10.0 mi SW 24.2 mph 29.9 mph N/A   Clear
5:53 PM 46.0 °F 38.3 °F 33.1 °F 61% 30.09 in 10.0 mi SW 20.7 mph 32.2 mph N/A   Clear
6:53 PM 45.0 °F 36.9 °F 34.0 °F 65% 30.13 in 10.0 mi SW 20.7 mph - N/A   Clear
7:53 PM 44.1 °F 36.8 °F 33.1 °F 65% 30.17 in 10.0 mi SW 16.1 mph 26.5 mph N/A   Clear
8:53 PM 44.1 °F 34.8 °F 33.1 °F 65% 30.18 in 10.0 mi SW 25.3 mph 33.4 mph N/A   Clear
9:53 PM 44.1 °F 35.9 °F 33.1 °F 65% 30.23 in 10.0 mi SW 19.6 mph 29.9 mph N/A   Clear
10:53 PM 43.0 °F 36.8 °F 33.1 °F 68% 30.26 in 10.0 mi WSW 11.5 mph - N/A   Clear
11:53 PM 42.1 °F 33.6 °F 33.1 °F 70% 30.29 in 10.0 mi SW 18.4 mph 25.3 mph N/A   Clear